Tracking 20083 objects as of 7-Dec-2019
HD Live streaming from Space Station
objects crossing your sky now

LEMUR 2 FURIAUS

Track LEMUR 2 FURIAUS now!
10-day predictions
LEMUR 2 FURIAUS is classified as:


NORAD ID: 42840
Int'l Code: 2017-042R
Perigee: 590.3 km
Apogee: 607.5 km
Inclination: 97.5 °
Period: 96.5 minutes
Semi major axis: 6969 km
RCS: Unknown
Launch date: July 14, 2017
Source: United States (US)
Launch site: TYURATAM MISSILE AND SPACE COMPLEX (TTMTR)
aabbcc
Your satellite tracking list
Your tracking list is empty




NASA's NSSDC Master Catalog

Two Line Element Set (TLE):
1 42840U 17042R   19341.42678889  .00000317  00000-0  36551-4 0  9997
2 42840  97.5465 228.1204 0012396 198.0127 162.0655 14.91978143130594
Source of the keplerian elements: AFSPC